Location: Unspecified
(48.8582°N, 2.2947°E)
Time: 19:08:06
(UTC+02:00)

Daily predictions for brighter satellites

Satellite Brightness Start Highest point End
(mag) Time Altitude Azimuth Time Altitude Azimuth Time Altitude Azimuth
Cosmos 2173 Rocket 4.1 22:30:12 10° N 22:36:21 72° E 22:42:33 10° SSE
MetOp-B 4.2 22:33:31 10° SSE 22:38:53 86° ENE 22:44:17 10° NNW
Cosmos 2228 Rocket 4.3 22:35:51 10° N 22:39:55 30° ENE 22:43:58 10° SE
Cosmos 1242 Rocket 2.6 22:37:29 10° N 22:41:14 81° ENE 22:44:57 10° SSE
ATLAS 5 CENTAUR R/B 1.9 22:41:44 10° SSW 22:46:18 53° SE 22:51:19 10° NE
Cosmos 2237 Rocket 4.2 22:45:03 10° NW 22:49:26 24° WSW 22:53:49 10° SSW
H-2A R/B 3.5 22:49:24 10° ESE 22:52:56 25° ENE 22:56:25 10° N
Cosmos 1151 Rocket 4.4 22:49:55 10° NNE 22:53:36 25° ENE 22:57:16 10° SE
Cosmos 1802 Rocket 4.0 22:48:13 10° N 22:54:23 83° E 23:00:32 10° S
Cosmos 1850 Rocket 4.0 22:49:24 10° SSW 22:54:33 82° ESE 22:59:48 10° NNE
Intercosmos 25 4.4 22:50:58 10° N 22:55:38 88° E 23:03:25 10° S
Cosmos 468 Rocket 4.1 22:50:50 10° NNW 22:55:59 70° ENE 23:01:06 10° SSE
Cosmos 1603 3.8 22:50:25 10° NNW 22:56:08 73° ENE 23:01:44 10° SE
Lacrosse 5 1.9 22:51:07 10° NW 22:56:13 88° NE 23:01:18 10° SE
SPOT 5 3.0 22:52:13 10° SSE 22:57:03 88° WSW 23:02:12 10° NNW
Cosmos 1725 Rocket 4.3 22:51:24 10° N 22:57:34 55° ENE 23:03:39 10° SSE
Cosmos 614 Rocket 4.4 22:53:20 10° SSW 22:58:32 69° WNW 23:03:44 10° NNE
Cosmos 1340 Rocket 3.9 22:55:54 10° SSW 22:59:48 47° WNW 23:03:45 10° N
Cosmos 1300 3.2 22:57:42 10° N 23:01:26 47° ENE 23:04:56 11° SSE
H-2A R/B 2.2 22:59:16 10° SSE 23:04:34 78° ENE 23:10:02 10° NNW
CZ-3B DEB 4.4 22:54:41 10° WSW 23:05:12 73° NNW 23:18:31 10° ENE
Cosmos 371 Rocket 3.6 23:00:30 10° NNW 23:05:16 56° ENE 23:09:42 12° SE
Helios 1B rocket 4.5 23:01:47 10° N 23:05:28 31° WNW 23:09:08 10° SW
Cosmos 2084 3.2 23:03:59 10° SSW 23:07:52 56° SE 23:11:38 10° NE
Cosmos 2227 Rocket 3.7 23:03:23 10° WSW 23:08:42 41° NW 23:14:04 10° NNE
ERS-1 Rocket 4.1 23:03:59 10° SSW 23:08:43 41° W 23:13:30 10° NNW
Cosmos 1626 4.1 23:07:11 10° ESE 23:09:15 15° E 23:11:21 10° NE
Cosmos 1726 2.1 23:07:47 10° N 23:11:30 79° E 23:14:58 11° SSE
IGS 5A 4.2 23:08:03 12° SE 23:11:40 41° ENE 23:15:36 10° N
SL-16 R/B 3.5 23:07:53 10° NW 23:12:59 35° WSW 23:18:02 10° S
Cosmos 1943 3.6 23:08:03 10° NNW 23:13:36 54° NE 23:18:44 12° SE
Cosmos 1741 Rocket 4.4 23:13:28 10° SSW 23:18:46 69° WNW 23:24:05 10° NNE
ARGOS 3.8 23:16:48 10° S 23:22:05 53° W 23:27:24 10° NNW
Cosmos 2016 Rocket 4.3 23:20:40 10° NNW 23:26:56 70° W 23:33:05 10° S
Landsat 7 3.8 23:24:17 12° SSE 23:28:39 89° WSW 23:33:26 10° NNW
Lacrosse 4 Rocket 4.2 23:25:07 10° W 23:28:40 24° NW 23:32:17 10° NNE
DMSP B5D2-2 4.1 23:27:00 10° NNE 23:32:13 62° ESE 23:37:22 10° S
Cosmos 1674 4.2 23:31:07 10° SW 23:34:35 35° WNW 23:38:05 10° N
Abrixas rocket 2.3 23:31:43 10° W 23:34:54 53° SSW 23:37:06 18° SE
deb Chang Zheng 4 4.4 23:30:59 10° NNE 23:34:57 33° E 23:37:45 17° SSE
Cosmos 220 Rocket 4.4 23:31:00 11° S 23:35:03 47° ESE 23:39:16 10° NNE
Cosmos 540 Rocket 4.5 23:30:22 10° N 23:35:09 36° ENE 23:39:20 13° ESE
Cosmos 1455 3.5 23:32:01 10° N 23:35:25 28° ENE 23:37:50 15° ESE
EO 1 Delta rocket 4.2 23:32:46 10° S 23:37:27 61° W 23:42:04 10° NNW
Cosmos 1408 Rocket 4.1 23:33:57 10° SSW 23:38:11 59° WNW 23:42:29 10° N
Terra 1.8 23:39:43 16° SSE 23:43:35 90° WSW 23:48:24 10° NNW
PSLV R/B 3.5 23:43:15 23° SE 23:44:44 46° ENE 23:47:30 10° N
CZ-2C R/B 4.5 23:45:45 10° NE 23:48:36 14° E 23:51:01 11° ESE
Meteor 1-27 4.3 23:43:05 10° N 23:48:57 81° ENE 23:53:30 17° SSE
Cosmos 2227 4.3 23:45:16 10° SSW 23:51:00 86° WNW 23:56:45 10° NNE
Cosmos 2233 Rocket 4.0 23:46:17 10° N 23:52:34 86° E 23:57:33 17° S
Cosmos 2058 3.2 23:50:15 19° SSE 23:53:06 54° E 23:57:14 10° NNE
Cosmos 1814 Rocket 4.4 23:48:04 10° NNW 23:53:20 58° WSW 23:57:29 16° S
